DW9657 Weather Reports


time (UTC)temp
C
wind
direction
speed
KPH
gust
KPH
rain 1hr
cm
rain 24hr
cm
rain mn
cm
humidity
%
barometer
mb
20260503211330 15 205 11.3 17.7 0.00 0.00 0.00 62 1010.4
20260503210834 15 224 12.9 20.9 0.00 0.00 0.00 62 1010.4
20260503210332 15 218 12.9 22.5 0.00 0.00 0.00 62 1010.4
20260503205835 15 220 12.9 22.5 0.00 0.00 0.00 62 1010.4
20260503205332 15 221 11.3 20.9 0.00 0.00 0.00 62 1010.5
20260503204828 15 218 14.5 20.9 0.00 0.00 0.00 59 1010.5
20260503204352 15 210 9.7 17.7 0.00 0.00 0.00 63 1010.5
20260503203834 15 218 9.7 19.3 0.00 0.00 0.00 62 1010.7
20260503203330 15 214 14.5 20.9 0.00 0.00 0.00 61 1010.7
20260503202834 15 205 11.3 20.9 0.00 0.00 0.00 62 1010.7
20260503202331 15 224 12.9 16.1 0.00 0.00 0.00 63 1010.7
20260503201827 15 222 11.3 19.3 0.00 0.00 0.00 63 1010.9
20260503201331 15 229 11.3 20.9 0.00 0.00 0.00 63 1010.8
20260503200833 15 220 11.3 20.9 0.00 0.00 0.00 64 1011.0
20260503200330 14 216 11.3 19.3 0.00 0.00 0.00 65 1011.1
20260503195833 14 214 11.3 19.3 0.00 0.00 0.00 64 1011.1
20260503195349 14 222 12.9 17.7 0.00 0.00 0.00 64 1011.2
20260503194852 15 218 9.7 17.7 0.00 0.00 0.00 63 1011.2
20260503194333 15 219 11.3 17.7 0.00 0.00 0.00 63 1011.3
20260503193832 15 219 11.3 17.7 0.00 0.00 0.00 64 1011.3
20260503193335 15 210 9.7 20.9 0.00 0.00 0.00 62 1011.4
20260503192831 15 214 11.3 20.9 0.00 0.00 0.00 61 1011.3
20260503192335 15 231 12.9 20.9 0.00 0.00 0.00 60 1011.5
20260503191833 15 232 12.9 25.7 0.00 0.00 0.00 61 1011.6
20260503191335 15 216 12.9 25.7 0.00 0.00 0.00 59 1011.7
20260503190831 15 233 12.9 24.1 0.00 0.00 0.00 60 1011.7
20260503190334 15 214 12.9 24.1 0.00 0.00 0.00 62 1011.8
20260503185831 15 218 12.9 20.9 0.00 0.00 0.00 61 1011.9
20260503185336 15 217 12.9 19.3 0.00 0.00 0.00 61 1012.0
20260503184834 15 229 11.3 20.9 0.00 0.00 0.00 62 1012.1
20260503184338 15 210 11.3 19.3 0.00 0.00 0.00 60 1012.1
20260503183833 15 218 12.9 19.3 0.00 0.00 0.00 60 1012.1
20260503183330 15 215 12.9 20.9 0.00 0.00 0.00 61 1012.2
20260503182834 15 214 12.9 20.9 0.00 0.00 0.00 61 1012.3
20260503182331 14 222 9.7 17.7 0.00 0.00 0.00 62 1012.4
20260503181835 14 219 9.7 19.3 0.00 0.00 0.00 64 1012.5
20260503181333 14 218 11.3 27.4 0.00 0.00 0.00 60 1012.6
20260503180836 14 222 14.5 27.4 0.00 0.00 0.00 57 1012.7
20260503180333 14 214 16.1 20.9 0.00 0.00 0.00 57 1012.8
20260503175834 14 232 12.9 24.1 0.00 0.00 0.00 60 1012.8
20260503175351 14 220 16.1 24.1 0.00 0.00 0.00 58 1012.9
20260503174833 13 210 14.5 20.9 0.00 0.00 0.00 60 1012.9
20260503174335 13 234 12.9 22.5 0.00 0.00 0.00 61 1013.0
20260503173851 13 222 12.9 22.5 0.00 0.00 0.00 59 1013.0
20260503173334 13 222 11.3 22.5 0.00 0.00 0.00 61 1013.0
20260503172831 13 210 14.5 20.9 0.00 0.00 0.00 60 1013.1
20260503172336 13 214 11.3 22.5 0.00 0.00 0.00 62 1013.1
20260503171833 13 241 14.5 22.5 0.00 0.00 0.00 62 1013.3
20260503171337 13 218 11.3 25.7 0.00 0.00 0.00 64 1013.2
20260503170832 13 218 14.5 25.7 0.00 0.00 0.00 64 1013.4
20260503170336 13 223 11.3 20.9 0.00 0.00 0.00 63 1013.4
20260503150847 11 214 12.9 19.3 0.00 0.00 0.00 71 1014.2
20260503150349 10 229 9.7 20.9 0.00 0.00 0.00 72 1014.4
20260503131333 8 224 12.9 24.1 0.00 0.00 0.00 70 1014.7
20260503130827 7 224 11.3 20.9 0.00 0.00 0.00 71 1014.7
20260503130351 7 230 12.9 24.1 0.00 0.00 0.00 70 1014.7
20260503110333 5 223 6.4 12.9 0.00 0.00 0.00 74 1014.8
20260503090355 5 222 4.8 8.0 0.00 0.00 0.00 70 1015.0
20260503081326 5 226 4.8 8.0 0.00 0.00 0.00 70 1015.3
20260503080851 5 222 6.4 8.0 0.00 0.00 0.00 71 1015.3
20260503080354 5 222 4.8 8.0 0.00 0.00 0.00 71 1015.3
20260503072836 5 222 3.2 8.0 0.00 0.03 0.00 71 1015.3
20260503072332 5 222 4.8 8.0 0.00 0.03 0.00 70 1015.3
20260503071836 5 222 6.4 9.7 0.00 0.03 0.00 69 1015.4
20260503071332 5 224 8.0 11.3 0.00 0.03 0.00 69 1015.3
20260503070836 5 224 6.4 9.7 0.00 0.03 0.00 69 1015.3
20260503070333 5 219 4.8 6.4 0.00 0.03 0.00 69 1015.4
20260503060333 6 222 4.8 12.9 0.00 0.03 0.00 66 1015.9
20260503054839 6 230 6.4 12.9 0.00 0.03 0.00 67 1015.8
20260503054353 6 229 6.4 12.9 0.00 0.03 0.00 66 1015.9
20260503053820 6 218 6.4 11.3 0.00 0.03 0.00 66 1016.0
20260503053333 6 224 6.4 12.9 0.00 0.03 0.00 66 1015.9
20260503052819 6 224 6.4 12.9 0.00 0.03 0.00 67 1015.9
20260503052331 6 222 4.8 9.7 0.00 0.03 0.00 66 1016.0
20260503051834 6 225 6.4 9.7 0.00 0.03 0.00 66 1016.0
20260503051329 6 222 6.4 9.7 0.00 0.03 0.00 65 1016.1
20260503050832 5 219 6.4 9.7 0.00 0.03 0.00 66 1016.1
20260503050328 5 222 4.8 8.0 0.00 0.03 0.00 67 1016.0
20260503045831 5 224 4.8 8.0 0.00 0.03 0.00 67 1016.1
20260503045325 5 221 4.8 6.4 0.00 0.03 0.00 67 1016.1
20260503044848 5 222 3.2 8.0 0.00 0.03 0.00 66 1016.1
20260503044323 5 220 3.2 6.4 0.00 0.03 0.00 66 1016.0
20260503043826 5 220 4.8 6.4 0.00 0.03 0.00 66 1016.0
20260503043323 5 220 4.8 6.4 0.00 0.03 0.00 66 1016.1
20260503042826 5 221 4.8 6.4 0.00 0.03 0.00 66 1016.2
20260503042322 5 220 4.8 6.4 0.00 0.03 0.00 67 1016.2
20260503041818 5 224 3.2 4.8 0.00 0.03 0.00 66 1016.3
20260503041321 5 224 3.2 4.8 0.00 0.03 0.00 66 1016.2
20260503040844 5 225 3.2 4.8 0.00 0.03 0.00 66 1016.3
20260503040319 5 225 3.2 4.8 0.00 0.03 0.00 66 1016.3
20260503035819 5 225 1.6 3.2 0.00 0.03 0.03 66 1016.3
20260503035336 5 225 1.6 4.8 0.00 0.03 0.03 66 1016.4
20260503034840 5 224 1.6 4.8 0.00 0.03 0.03 65 1016.3
20260503034337 5 227 1.6 3.2 0.00 0.03 0.03 66 1016.3
20260503033840 5 227 0.0 3.2 0.00 0.03 0.03 66 1016.4
20260503033334 5 242 1.6 3.2 0.00 0.03 0.03 66 1016.3
20260503032838 5 263 1.6 3.2 0.00 0.03 0.03 67 1016.4
20260503032334 5 270 1.6 3.2 0.00 0.03 0.03 67 1016.4
20260503031836 5 271 1.6 3.2 0.00 0.03 0.03 67 1016.4
20260503031332 5 271 1.6 3.2 0.00 0.03 0.03 66 1016.5
20260503030835 5 271 1.6 1.6 0.00 0.03 0.03 66 1016.4
20260503030339 5 271 0.0 1.6 0.00 0.03 0.03 65 1016.5
20260503025843 5 271 0.0 1.6 0.00 0.03 0.03 64 1016.4
20260503025356 5 271 0.0 0.0 0.00 0.03 0.03 63 1016.5
20260503024838 5 270 0.0 1.6 0.00 0.03 0.03 63 1016.6
20260503024334 5 271 0.0 1.6 0.00 0.03 0.03 62 1016.6
20260503023837 5 270 0.0 0.0 0.00 0.03 0.03 62 1016.6
20260503023354 5 270 0.0 1.6 0.00 0.03 0.03 61 1016.7
20260503022835 5 271 0.0 1.6 0.00 0.03 0.03 62 1016.7
20260503022330 6 271 0.0 1.6 0.00 0.03 0.03 62 1016.7
20260503021833 6 270 0.0 1.6 0.00 0.03 0.03 62 1016.7
20260503021356 6 271 0.0 1.6 0.00 0.03 0.03 62 1016.7
20260503020852 6 271 0.0 1.6 0.00 0.03 0.03 62 1016.6
20260503020333 6 271 0.0 1.6 0.00 0.03 0.03 61 1016.7
20260503015831 6 271 0.0 1.6 0.00 0.03 0.03 61 1016.6
20260503015334 6 271 0.0 1.6 0.00 0.03 0.03 61 1016.6
20260503014831 6 271 0.0 1.6 0.00 0.03 0.03 62 1016.6
20260503014334 6 271 0.0 1.6 0.00 0.03 0.03 61 1016.6
20260503013829 6 271 0.0 1.6 0.00 0.03 0.03 61 1016.6
20260503013332 6 271 0.0 1.6 0.00 0.03 0.03 61 1016.6
20260503012828 6 271 0.0 1.6 0.00 0.03 0.03 61 1016.6
20260503012323 6 270 0.0 3.2 0.00 0.03 0.03 62 1016.5
20260503011827 6 271 1.6 3.2 0.00 0.03 0.03 61 1016.5
20260503011321 6 271 0.0 3.2 0.00 0.03 0.03 62 1016.5
20260503010844 6 271 1.6 3.2 0.00 0.03 0.03 62 1016.5
20260503010326 6 271 0.0 3.2 0.00 0.03 0.03 61 1016.5
20260503005823 7 271 1.6 3.2 0.00 0.05 0.03 61 1016.5
20260503005325 7 271 1.6 3.2 0.00 0.05 0.03 61 1016.4
20260503004822 7 271 0.0 3.2 0.00 0.05 0.03 61 1016.4
20260503004326 7 271 0.0 1.6 0.00 0.05 0.03 61 1016.4
20260503003822 7 271 0.0 1.6 0.00 0.05 0.03 61 1016.4
20260503003326 7 271 0.0 1.6 0.00 0.05 0.03 61 1016.4
20260503002821 7 271 0.0 1.6 0.00 0.05 0.03 61 1016.3
20260503002325 7 271 0.0 1.6 0.00 0.05 0.03 62 1016.3
20260503001904 7 271 0.0 0.0 0.00 0.05 0.03 62 1016.4
20260503001340 7 271 0.0 0.0 0.00 0.05 0.03 62 1016.3
20260503000823 7 271 0.0 0.0 0.00 0.05 0.03 61 1016.3
20260503000340 7 271 0.0 4.8 0.00 0.05 0.03 60 1016.3
20260502235821 7 271 0.0 4.8 0.00 0.05 0.03 58 1016.4
20260502235317 7 271 1.6 4.8 0.00 0.05 0.03 58 1016.4
20260502234820 7 272 1.6 4.8 0.00 0.05 0.03 58 1016.3
20260502234318 7 270 0.0 6.4 0.00 0.05 0.03 56 1016.3
20260502233336 7 272 4.8 8.0 0.00 0.05 0.03 54 1016.3
20260502232832 7 267 3.2 9.7 0.00 0.05 0.03 55 1016.3
20260502232335 7 260 4.8 9.7 0.00 0.05 0.03 56 1016.3
20260502231830 7 273 3.2 4.8 0.00 0.05 0.03 55 1016.3
20260502231332 7 273 1.6 6.4 0.00 0.05 0.03 57 1016.3
20260502230858 7 274 1.6 6.4 0.00 0.05 0.03 56 1016.3
20260502230354 7 266 1.6 11.3 0.00 0.05 0.03 56 1016.3
20260502225834 7 266 3.2 9.7 0.00 0.15 0.03 56 1016.4
20260502225331 7 264 6.4 9.7 0.00 0.15 0.03 53 1016.4
20260502224835 7 258 6.4 9.7 0.00 0.15 0.03 56 1016.4
20260502224332 7 275 1.6 11.3 0.00 0.15 0.03 55 1016.4
20260502223834 7 259 4.8 11.3 0.00 0.15 0.03 53 1016.4
20260502223330 7 269 3.2 12.9 0.00 0.15 0.03 56 1016.4
20260502222832 7 274 4.8 16.1 0.00 0.15 0.03 55 1016.4
20260502222328 7 259 6.4 11.3 0.00 0.15 0.03 54 1016.4
20260502221823 7 274 4.8 12.9 0.00 0.15 0.03 54 1016.4
20260502221327 7 282 4.8 9.7 0.00 0.15 0.03 54 1016.4
20260502220822 7 266 4.8 9.7 0.00 0.15 0.03 56 1016.4
20260502220326 7 268 3.2 9.7 0.00 0.15 0.03 54 1016.5
20260502215821 7 272 4.8 11.3 0.00 0.18 0.03 54 1016.4
20260502215345 7 272 3.2 11.3 0.00 0.18 0.03 54 1016.5
20260502214819 7 268 6.4 11.3 0.00 0.18 0.03 54 1016.5
20260502214343 7 306 4.8 14.5 0.00 0.18 0.03 53 1016.4
20260502213824 7 260 6.4 16.1 0.00 0.18 0.03 55 1016.4
20260502213320 8 276 1.6 17.7 0.00 0.18 0.03 55 1016.4
20260502212822 8 263 6.4 17.7 0.00 0.18 0.03 53 1016.4
20260502212318 8 272 4.8 8.0 0.00 0.18 0.03 54 1016.4